This is the latest recevied weather packets stored in our database for station/object W6JCZ-13. If no packets are shown the sender has not sent any weather packets the latest 10 day(s).
| Time | Temp. | Humidity | Pressure | Rain* | Wind** | Luminosity | Snow |
|---|---|---|---|---|---|---|---|
| 1777509018 | 27.78° C | 35% | 1012 hPa | 0 mm | - | - | - |
| 1777508417 | 27.78° C | 34% | 1012.1 hPa | 0 mm | - | - | - |
| 1777507818 | 28.33° C | 37% | 1012.2 hPa | 0 mm | - | - | - |
| 1777507218 | 28.33° C | 32% | 1012.3 hPa | 0 mm | - | - | - |
| 1777506617 | 28.89° C | 34% | 1012.4 hPa | 0 mm | - | - | - |
| 1777506018 | 28.89° C | 32% | 1012.6 hPa | 0 mm | - | - | - |
| 1777505419 | 28.33° C | 33% | 1012.7 hPa | 0 mm | - | - | - |
| 1777504818 | 27.78° C | 37% | 1012.9 hPa | 0 mm | - | - | - |
| 1777504218 | 27.78° C | 36% | 1013.1 hPa | 0 mm | - | - | - |
| 1777503618 | 28.33° C | 34% | 1013.3 hPa | 0 mm | - | - | - |
| 1777503017 | 27.22° C | 35% | 1013.4 hPa | 0 mm | - | - | - |
| 1777502417 | 27.78° C | 39% | 1013.6 hPa | 0 mm | - | - | - |
| 1777501817 | 27.22° C | 37% | 1013.7 hPa | 0 mm | - | - | - |
| 1777501218 | 27.78° C | 37% | 1013.9 hPa | 0 mm | - | - | - |
| 1777500618 | 27.78° C | 34% | 1013.9 hPa | 0 mm | - | - | - |
| 1777500017 | 27.78° C | 35% | 1014.1 hPa | 0 mm | - | - | - |
| 1777499418 | 27.22° C | 33% | 1014.2 hPa | 0 mm | - | - | - |
| 1777498817 | 27.22° C | 38% | 1014.2 hPa | 0 mm | - | - | - |
| 1777498217 | 26.67° C | 38% | 1014.3 hPa | 0 mm | - | - | - |
| 1777497617 | 26.11° C | 38% | 1014.4 hPa | 0 mm | - | - | - |
| 1777497017 | 26.67° C | 42% | 1014.5 hPa | 0 mm | - | - | - |
| 1777496417 | 26.11° C | 37% | 1014.6 hPa | 0 mm | - | - | - |
| 1777495817 | 26.67° C | 42% | 1014.7 hPa | 0 mm | - | - | - |
| 1777495217 | 25.56° C | 41% | 1014.7 hPa | 0 mm | - | - | - |
| 1777494617 | 25.56° C | 44% | 1014.9 hPa | 0 mm | - | - | - |
* Rain latest hour (hover to see other rain measurements)
** Current wind speed in m/s (hover to see current wind gust speed)